User: anonymous   Login
Location: Unspecified
(0.0000°N, 0.0000°E)
Time: 07:18:51
(UTC+00:00)
Language:

SWISSCUBE - Orbit

View from above orbital plane
View from above orbital plane
View from above satellite
View from above satellite

Ground track
Ground track

The orbit is defined by the following mean orbital elements,

1 35932U          26106.65882920 +.00000000 +00000-0 +13613-3 0 00007
2 35932  98.4071  13.4711 0007875  50.7783 309.4116 14.62359440    09
Epoch (UTC): 16 April 2026 15:48:42
Eccentricity: 0.0007875
inclination: 98.4071°
perigee height: 680 km
apogee height: 691 km
right ascension of ascending node: 13.4711°
argument of perigee: 50.7783°
revolutions per day: 14.62359440
mean anomaly at epoch: 309.4116°

The dashed part of the orbit path shows where the satellite is in the earth's shadow,  

DLR